www.pogodaiklimat.ru

Погода и климат >> Архив погоды >> Кот-д'Ивуар >> Ман


ПОГОДА в Мане

  • Прогноз погоды в Мане
  • Монитор погоды в Мане

АРХИВ ПОГОДЫ в Мане

Время (UTC), дата Ветер
(напр.,м/с)
 
Видим.   Явления Облачность Т
(С)
Тd
(С)
f
(%)
Тe
(С)
Тes
(С)
Комфортность P
(гПа)
Po
(гПа)
Тmin
(С)
Tmax
(С)
R
(мм)
R24
(мм)
S
(см)
03 15.09 штиль 0 8000 м 10/10 330 м
[Sc]
+23.4 +23.4 100 +33 +33 очень
душно
1011.6 974.9
06 15.09 штиль 0 10 км 10/10 330 м
[Sc]
+23.4 +23.4 100 +33 +33 очень
душно
1012.7 976.0 +23.1 12
09 15.09 Ю 2 10 км 10/10 400 м
[Cu med, cong]
+24.5 +23.6 95 +33 +33 очень
душно
1014.4 977.7
12 15.09 штиль 0 8000 м слаб. дождь 9/9 400 м
[Cu med, cong]
+22.4 +22.1 98 +30 +33 очень
душно
1013.6 976.7 16
15 15.09 Ю 3 10 км {дождь} 9/4 400 м
[Cu med, cong Ac As]
+26.7 +23.6 83 +36 +39 очень
душно
1009.0 972.8
18 15.09 штиль 0 10 км {дождь} 8/1 450 м
[Cu hum Ac trans]
+27.3 +24.0 82 +38 +38 очень
душно
1009.2 973.1 +29.0 16
21 15.09 штиль 0 10 км 8/5 400 м
[Cu med, cong Ac trans]
+24.3 +24.3 100 +34 +34 очень
душно
1011.6 975.0
00 16.09 штиль 0 10 км зарница 6/4 400 м
[Cb cap Ci sp]
+22.9 +22.9 100 +32 +32 очень
душно
1012.3 975.5
03 16.09 ЮВ 2 10 км зарница 10/10 400 м
[Cb cap]
+22.8 +22.8 100 +31 +31 очень
душно
1011.6 974.8
06 16.09 СВ 2 8000 м гроза, ливневой дождь 10/10 400 м
[Cb cap]
+20.9 +20.9 100 +27 +27 душно 1011.8 974.7 +20.9 38
09 16.09 штиль 0 10 км в посл. час дождь {гроза} 9/9 400 м
[Cu Sc]
+22.8 +22.3 97 +31 +32 очень
душно
1012.6 975.8
18 16.09 штиль 0 10 км {гроза, дождь} 6/4 400 м
[Cb cap Ac trans]
+26.5 +24.0 86 +37 +37 очень
душно
1009.8 973.5 +30.6
21 16.09 штиль 0 10 км 5/5 400 м
[Sc]
+23.5 +23.5 100 +32 +32 очень
душно
1011.6 974.9
00 17.09 ЮЗ 1 10 км 4/4 400 м
[Sc]
+22.2 +22.2 100 +30 +30 очень
душно
1012.6 975.7
03 17.09 штиль 0 10 км 4/4 400 м
[Sc]
+22.9 +22.7 99 +31 +31 очень
душно
1011.6 974.8
09 17.09 Ю 2 8000 м 10/10 180 м
[Sc]
+23.6 +23.3 98 +32 +32 очень
душно
1013.6 976.8
12 17.09 ЮЗ 2 10 км 9/9 400 м
[Cu med, cong]
+27.3 +23.3 79 +37 +39 очень
душно
1012.0 975.7
15 17.09 ЮЗ 2 10 км 8/5 400 м
[Cu med, cong Ac trans]
+29.9 +23.9 70 +41 +46 опасность
перегрева
1008.4 972.5
18 17.09 Ю 6 10 км 9/8 400 м
[Cb cap Ci ing]
+25.7 +23.2 86 +34 +34 очень
душно
1009.8 973.4 +30.5
21 17.09 ЮЗ 1 8000 м в посл. час гроза {дождь} 10/10 400 м
[Cb cap]
+22.5 +22.5 100 +30 +30 очень
душно
1013.1 976.2
00 18.09 штиль 0 8000 м {гроза, дождь} 9/9 400 м
[Sc]
+22.3 +22.3 100 +30 +30 очень
душно
1012.9 976.0 12
03 18.09 ЮЗ 1 8000 м 10/10 400 м
[Sc]
+22.0 +22.0 100 +29 +29 очень
душно
1011.3 974.4
06 18.09 ЮЗ 1 10 км 10/10 400 м
[Sc]
+22.2 +22.2 100 +30 +30 очень
душно
1012.2 975.3 +22.1 12
09 18.09 ЮЗ 1 10 км 10/10 180 м
[Cu med, cong]
+23.4 +23.1 98 +33 +33 очень
душно
1013.6 976.8
12 18.09 штиль 0 10 км в посл. час морось 9/9 400 м
[Cu med, cong]
+26.3 +23.2 83 +35 +38 очень
душно
1012.7 976.3 0.2
15 18.09 ЮЗ 1 10 км 8/6 400 м
[Cu med, cong Ac trans]
+28.4 +23.8 76 +39 +44 очень
душно
1009.5 973.5
18 18.09 штиль 0 10 км 4/4 450 м
[Cb cap Ci sp]
+29.0 +23.7 73 +40 +40 очень
душно
1009.2 973.2 +30.2 0.2
21 18.09 штиль 0 10 км 5/5 400 м
[Cu med, cong Ci sp]
+23.5 +23.2 98 +31 +31 очень
душно
1012.2 975.5
00 19.09 штиль 0 10 км 8/8 300 м
[Sc]
+23.0 +23.0 100 +32 +32 очень
душно
1013.1 976.3
03 19.09 ЮЗ 2 8000 м 9/9 300 м
[Sc]
+23.1 +22.9 99 +32 +32 очень
душно
1011.0 974.3
06 19.09 Ю 2 8000 м 10/10 180 м
[Sc]
+23.0 +23.0 100 +32 +32 очень
душно
1011.9 975.1 +22.6 0.2
09 19.09 ЮЗ 2 10 км 10/10 330 м
[Cu med, cong]
+24.4 +22.8 91 +32 +32 очень
душно
1013.1 976.4
15 19.09 ЮЗ 2 10 км 8/8 450 м
[Cb cap Ac trans]
+27.2 +24.7 86 +39 +41 очень
душно
1008.3 972.2
21 19.09 штиль 0 10 км гроза без осадков 9/9 450 м
[Cb cap]
+22.9 +22.9 100 +32 +32 очень
душно
1011.9 975.1
00 20.09 штиль 0 10 км зарница {гроза, дождь} 9/9 400 м
[Cb cap]
+21.9 +21.9 100 +29 +29 очень
душно
1012.4 975.4 0.2
03 20.09 штиль 0 10 км зарница 8/4 400 м
[Cb cap Ac trans]
+21.5 +21.5 100 +28 +28 очень
душно
1011.6 974.6
06 20.09 штиль 0 10 км 8/5 400 м
[Sc Ac trans]
+21.0 +21.0 100 +26 +26 душно 1011.8 974.7 +21.0 0.2
09 20.09 штиль 0 10 км 8/5 400 м
[Cu med, cong Ac trans]
+25.3 +22.6 85 +33 +37 очень
душно
1013.6 977.0
15 20.09 ЮВ 1 10 км 6/6 450 м
[Cu med, cong Ac trans]
+29.9 +22.6 65 +39 +46 очень
душно
1008.0 972.6

 

Местоположение метеостанции Ман (Кот-д'Ивуар): широта 7.38 долгота -7.52 высота над уровнем моря 340 м.

В архиве по умолчанию представлена погода в Мане за последнюю неделю. Архивные данные за месяц целиком и за предыдущие месяцы, начиная с января 2011 года, Вы можете получить, выбрав интересующий диапазон дат из раскрывающегося списка и нажав кнопку "Ввод!".


*Определитесь, кто Вы:
робот инопланетянин человек

Внимание! Время в таблицах - всемирное. Для получения местного времени необходимо прибавить поправку, которая равна 0 ч.

Смотрите также архив погоды в соседних городах и на ближайших метеорологических станциях:

Погода в Далоа (Кот-д'Ивуар) (129 км)
Погода в Ганьоа (Кот-д'Ивуар) (222 км)
Погода в Одиенне (Кот-д'Ивуар) (240 км)
Погода в Ямусукро (Кот-д'Ивуар) (245 км)
Погода в Буаке (Кот-д'Ивуар) (272 км)
Погода в Сан-Педро (Кот-д'Ивуар) (308 км)
Погода в Корого (Кот-д'Ивуар) (309 км)
Погода в Сассандре (Кот-д'Ивуар) (314 км)
Погода в Димбокро (Кот-д'Ивуар) (322 км)
Погода в Табу (Кот-д'Ивуар) (330 км)

Пояснения к столбцам:

Ветер - указаны скорость ветра в м/с - средняя за 10 мин, порывы в срок и между сроками (в фигурных скобках) и направление, откуда дует ветер: С - северный, СВ - северо-восточный, В - восточный, ЮВ - юго-восточный, Ю - южный, ЮЗ - юго-западный, З - западный, СЗ - северо-западный.
Видимость - горизонтальная дальность видимости в метрах или километрах. При видимости от 1 до 10 км при отсутствии осадков обычно наблюдается дымка, при ухудшении видимости до 1 км и менее - туман. В сухую погоду видимость может ухудшаться дымом, пылью или мглою.
Явления - указаны атмосферные явления, наблюдавшиеся в срок или в последний час перед сроком; фигурными скобками обозначены явления, наблюдавшиеся между сроками (за 1-3 часа до срока); квадратными скобками обозначены град или гололедные отложения с указанием их диаметра в мм.
Облачность - указаны через наклонную черту общая и нижняя облачность в баллах и высота нижней границы облаков в метрах; квадратными скобками обозначены формы облаков: Ci - перистые, Cs - перисто-слоистые, Cc - перисто-кучевые, Ac - высококучевые, As - высокослоистые, Sc - слоисто-кучевые, Ns - слоисто-дождевые, Cu - кучевые, Cb - кучево-дождевые. Подробнее классификацию облаков см. в Атласе облаков (PDF).
T - Температура воздуха - температура, измеренная на высоте 2 м над землей.
Td - Температура точки росы - температура, при понижении до которой содержащийся в воздухе водяной пар достигнет насыщения.
f - Относительная влажность воздуха - влажноcть воздуха, измеренная на высоте 2 м над землей.
Te - Эффективная температура - температура, которую ощущает одетый по сезону человек в тени. Характеристика душности погоды. При расчете учитывается влияние влажности воздуха и скорости ветра на теплоощущения человека.
Tes - Эффективная температура на солнце - температура, которую ощущает человек, с поправкой на солнечный нагрев. Характеристика знойности погоды. Зависит от высоты солнца над горизонтом, облачности и скорости ветра. Ночью, в пасмурную погоду, а также при ветре 12 м/с и более поправка равна нулю.
P - Атмосферное давление - приведенное к уровню моря атмосферное давление.
Po - Атмосферное давление - измеренное на уровне метеостанции атмосферное давление.
Tmin - Минимальная температура - минимум температуры воздуха на высоте 2 м над землей.
Tmax - Максимальная температура - максимум температуры воздуха на высоте 2 м над землей.
R - Количество осадков - Количество выпавших осадков за период времени, мм. При наведении курсора мыши на число - период времени, за который выпало указанное количество осадков.
R24 - Количество осадков - Количество выпавших осадков за 24 часа, мм.
S - Снежный покров - Высота снежного покрова, см. При наведении курсора мыши на число - состояние снежного покрова и степень покрытия местности в баллах.